CAPE
1 3 0 0 0 1 1 5 3 7 8 0 0 0 0 0 0 0 2 0 0 0 0 0 0 0 1 0 5 1 0 0 0 0 0 0 0 0 0 0 0 0 0 0 0 0 3 82 127 0 123 508 380 519
0 0 0 0 0 2 4 9 3 5 7 4 5 0 0 0 0 0 0 0 0 0 0 0 0 0 0 0 0 0 0 0 26 0 0 18 6 8 0 2 0 0 0 0 0 0 147 150 1 2 146 371 375 420
0 0 0 1 0 2 13 3 3 7 8 2 9 0 0 0 0 0 0 0 0 0 0 0 0 0 0 0 0 0 0 0 1 0 0 3 96 35 4 3 5 0 15 3 11 212 141 119 9 74 89 169 346 528
0 2 2 1 8 14 16 8 5 9 13 6 18 7 3 0 0 0 1 1 0 0 0 0 0 0 0 0 0 0 0 0 0 0 0 13 10 14 0 41 23 5 0 0 333 277 242 45 177 148 201 496 608 609
13 12 14 19 15 14 19 16 21 14 14 13 15 14 7 0 0 0 0 0 0 0 0 0 0 0 0 0 0 0 0 0 0 0 0 0 3 0 25 18 8 28 7 0 55 595 240 284 568 461 598 784 719 607
18 17 17 19 21 11 6 4 10 6 11 13 14 4 0 0 0 0 0 4 0 0 0 0 0 0 0 0 0 0 0 0 0 0 0 0 2 0 0 0 0 39 21 12 38 182 297 371 784 753 965 848 746 873
20 16 13 15 16 3 9 7 13 19 10 3 8 4 0 0 0 4 1 0 0 1 2 0 0 0 0 0 0 0 0 0 0 0 0 3 15 0 0 0 0 0 37 190 781 494 492 787 834 906 1020 1012 1174 1483
8 4 4 6 6 4 7 15 7 0 2 1 0 0 0 0 0 2 1 0 0 7 9 1 0 0 0 0 0 0 0 0 0 0 3 6 5 17 0 0 0 1 18 300 633 162 401 793 958 1171 1152 1190 1367 1407
1 0 0 0 1 14 24 22 8 4 0 3 4 0 0 0 9 12 0 0 0 0 1 4 0 38 9 6 1 13 10 4 0 8 4 33 32 28 0 0 15 58 455 425 337 159 627 968 1274 1223 1269 1484 1517 1253
0 0 0 0 0 2 5 4 0 0 0 7 2 22 0 12 1 1 0 2 0 0 1 1 0 11 26 38 59 88 94 56 17 0 32 23 6 3 3 23 475 715 1011 853 769 723 1048 1326 1477 1627 1381 1437 1210 1047
0 0 0 1 1 0 3 3 5 4 0 7 21 12 13 0 12 3 17 16 13 16 1 0 0 0 1 38 52 59 59 22 17 4 1 12 0 0 0 5 156 396 888 1160 1048 999 1362 1600 1662 1355 1305 1331 1068 836
0 0 0 0 1 6 0 0 1 3 26 3 0 6 8 6 13 18 17 15 7 3 16 1 0 0 14 2 25 43 45 55 24 4 4 0 0 10 0 0 192 597 1182 1337 1261 1246 1640 1740 1507 1468 1358 1049 800 577
0 0 0 0 8 6 1 0 1 1 0 25 17 6 0 2 0 1 5 8 19 10 27 32 25 3 1 11 32 30 44 24 46 23 10 9 9 0 395 216 363 1077 1488 1465 1444 1613 1752 1624 1793 1524 1099 817 510 416
0 0 0 0 2 6 5 8 2 1 2 3 18 0 4 16 11 15 2 23 43 133 79 16 43 99 14 13 22 55 17 18 13 20 7 7 15 290 968 941 1042 1313 1570 1519 1656 1798 1961 2006 1641 1193 795 528 410 285
0 0 0 0 0 0 0 0 0 10 17 14 18 2 5 4 11 23 11 14 8 17 14 22 0 3 45 13 16 52 54 19 12 9 11 39 753 1339 1426 1390 1490 1626 1747 2059 2228 2197 1972 1722 1245 820 593 435 364 292
0 0 0 0 0 0 0 0 5 16 23 15 13 10 8 10 2 13 28 32 18 10 15 13 1 0 23 29 20 14 25 19 6 2 13 27 1296 1018 1386 1846 1918 2036 2258 2221 1968 1824 1579 1183 1017 867 689 481 268 96
0 1 0 0 0 0 0 5 11 10 16 26 7 7 6 5 2 2 5 3 7 4 0 13 0 0 31 14 3 6 0 43 460 616 816 339 1419 1217 1625 1492 1750 1867 1857 1914 1802 1524 1293 1078 818 588 390 199 92 36
0 2 0 0 0 1 0 7 4 4 1 3 2 0 1 0 7 5 1 0 3 4 8 2 20 24 43 7 0 0 3 143 408 605 993 1481 1723 1758 1570 1721 1513 1580 1727 1592 1349 1202 920 701 551 408 198 43 14 2
0 0 0 0 3 1 1 3 2 2 1 1 0 0 1 1 1 0 3 2 1 0 31 14 0 4 1 52 25 20 176 484 115 162 449 438 745 985 869 759 945 1058 1134 865 762 721 617 571 345 109 28 2 0 0
0 0 0 0 2 1 2 3 0 1 2 0 0 2 0 2 1 26 26 17 9 11 22 13 0 16 4 3 0 0 0 48 31 73 49 40 38 101 113 95 162 171 313 247 239 111 5 2 0 1 3 0 0 0
0 0 0 0 2 2 2 2 1 0 0 2 0 2 0 23 6 19 16 4 16 7 23 28 20 10 0 0 0 0 6 5 1 1 3 4 5 6 22 91 143 43 47 0 0 0 0 0 0 0 0 0 0 0
0 0 4 0 1 4 2 1 0 0 1 0 0 1 0 17 4 35 30 11 13 2 1 2 1 2 2 2 5 3 1 2 1 2 1 4 3 4 2 1 0 0 0 0 0 0 0 0 0 0 0 0 0 0
0 1 2 3 1 2 0 0 2 2 1 1 1 1 0 0 15 23 19 1 2 1 3 2 1 1 2 4 4 4 7 9 7 4 5 2 1 0 0 0 0 0 0 0 0 0 0 0 0 0 0 0 0 0
0 5 4 11 2 0 1 0 0 2 1 1 3 0 2 3 0 0 1 2 1 2 2 1 3 0 0 1 11 21 16 2 0 0 0 0 0 0 0 0 0 0 0 0 0 0 0 0 0 0 0 0 0 0
3 0 1 0 18 19 5 2 3 6 0 2 1 0 8 11 0 1 1 1 2 2 1 2 2 1 0 0 47 40 4 0 0 0 0 0 0 0 0 0 0 0 0 0 0 0 0 0 0 0 0 0 0 0
0 1 0 0 0 1 1 0 0 1 0 1 3 3 0 0 0 1 0 3 2 2 1 1 2 1 1 2 12 9 9 0 0 0 0 0 0 0 0 0 0 0 0 0 0 0 0 0 0 0 0 0 0 0
0 0 0 0 0 2 3 8 1 2 2 2 0 1 0 0 0 0 1 2 3 2 1 2 2 3 0 0 0 0 0 0 0 0 0 9 2 0 0 0 0 0 0 0 0 0 0 0 0 0 0 0 0 0
3 1 13 39 40 18 12 19 16 3 1 2 7 1 1 0 0 1 1 2 3 1 0 0 0 0 0 0 0 0 0 0 0 0 0 0 0 0 0 0 0 0 0 0 0 0 0 0 0 0 0 0 0 0
16 24 28 33 28 28 14 9 9 7 0 7 3 0 2 2 4 3 1 0 1 0 0 0 0 0 0 0 1 0 0 0 0 0 0 0 0 0 0 0 0 0 0 0 0 0 0 0 0 0 0 0 0 0
25 22 26 23 13 20 22 17 10 0 1 7 9 9 7 1 2 0 0 0 0 0 0 0 0 0 0 5 0 0 0 2 7 0 0 0 0 0 0 0 0 0 0 0 0 0 0 0 0 0 0 0 0 0
25 27 32 23 12 16 12 13 12 8 5 3 4 9 12 0 0 0 0 0 0 0 0 0 0 0 0 0 0 0 0 0 0 0 1 0 0 0 0 0 0 0 0 0 0 0 0 0 0 0 0 0 0 0
29 46 31 16 4 5 1 5 14 10 8 0 1 2 3 1 2 16 0 0 0 0 0 0 0 0 0 0 0 0 0 0 0 0 0 0 0 0 0 0 0 0 0 0 0 0 0 0 0 0 0 0 0 0
31 26 22 8 17 13 14 17 19 20 19 13 11 15 9 4 0 0 0 21 23 15 16 5 6 1 3 1 2 0 0 0 0 0 0 0 0 0 0 0 0 0 0 0 0 0 0 0 0 0 0 0 0 0
CIN
-0 -1 -0 -0 -0 -11 -11 -14 -14 -12 -12 -0 -0 -0 -0 -0 -0 -0 -1 -0 -0 -0 -0 -0 -0 -0 -1 -0 -3 -8 -0 -0 -0 -0 -0 -0 -0 -0 -0 -0 -0 -0 -0 -0 -0 -0 -2 -53 -51 -0 -8 -17 -19 -11
-0 -0 -0 -0 -0 -9 -13 -14 -14 -11 -14 -17 -6 -0 -0 -0 -0 -0 -0 -0 -0 -0 -0 -0 -0 -0 -0 -0 -0 -0 -0 -0 -56 -0 -0 -6 -3 -3 -0 -5 -0 -0 -0 -0 -0 -0 -8 -40 -5 -56 -6 -23 -32 -24
-0 -0 -0 -6 -5 -12 -10 -12 -13 -12 -13 -15 -7 -0 -0 -0 -0 -0 -0 -0 -0 -0 -0 -0 -0 -0 -0 -0 -0 -0 -0 -0 -1 -0 -0 -12 -62 -34 -1 -4 -7 -0 -17 -4 -6 -18 -40 -49 -3 -30 -29 -29 -31 -26
-0 -4 -6 -7 -17 -14 -13 -18 -17 -10 -12 -17 -5 -19 -21 -0 -0 -0 -2 -1 -0 -0 -0 -0 -0 -0 -0 -0 -0 -0 -0 -0 -0 -0 -0 -113 -67 -83 -0 -22 -7 -2 -0 -0 -16 -33 -24 -53 -16 -22 -20 -24 -33 -49
-10 -11 -12 -11 -11 -12 -10 -12 -12 -13 -12 -16 -11 -7 -11 -0 -0 -0 -0 -1 -0 -0 -0 -0 -0 -0 -0 -0 -0 -0 -0 -0 -0 -0 -0 -0 -25 -0 -99 -85 -6 -10 -7 -0 -19 -29 -18 -20 -32 -36 -29 -35 -45 -86
-13 -13 -14 -14 -13 -15 -16 -15 -15 -20 -14 -12 -15 -23 -0 -0 -0 -0 -0 -1 -0 -0 -0 -0 -0 -0 -0 -0 -0 -0 -0 -0 -0 -0 -0 -0 -6 -0 -0 -0 -0 -2 -4 -13 -6 -11 -25 -18 -54 -34 -46 -60 -77 -104
-13 -15 -13 -14 -13 -20 -16 -21 -15 -14 -12 -10 -9 -41 -0 -0 -0 -2 -1 -0 -0 -1 -1 -0 -0 -0 -0 -0 -0 -0 -0 -0 -0 -0 -0 -2 -21 -0 -0 -0 -0 -0 -6 -21 -39 -12 -13 -36 -47 -41 -66 -83 -128 -125
-17 -14 -17 -18 -15 -15 -20 -13 -26 -0 -54 -29 -0 -0 -0 -0 -0 -1 -1 -0 -0 -1 -0 -1 -0 -0 -0 -0 -0 -0 -0 -0 -0 -0 -1 -3 -3 -3 -0 -0 -0 -3 -8 -16 -60 -20 -21 -32 -39 -58 -83 -118 -145 -157
-14 -0 -0 -0 -6 -10 -14 -14 -20 -30 -0 -33 -30 -5 -0 -0 -1 -3 -0 -0 -0 -0 -0 -0 -0 -0 -2 -2 -1 -4 -4 -3 -0 -2 -3 -2 -5 -2 -0 -0 -66 -58 -8 -18 -49 -43 -8 -36 -56 -76 -106 -107 -147 -221
-0 -0 -0 -0 -0 -26 -26 -23 -11 -0 -36 -35 -12 -0 -1 -12 -19 -0 -0 -0 -0 -0 -0 -0 -0 -4 -1 -2 -1 -1 -2 -4 -2 -0 -2 -3 -4 -2 -2 -38 -17 -77 -60 -41 -25 -20 -4 -20 -48 -102 -106 -113 -209 -260
-0 -0 -0 -22 -25 -0 -38 -32 -24 -30 -0 -1 -1 -0 -2 -0 -1 -1 -0 -0 -1 -1 -0 -0 -0 -0 -1 -2 -6 -3 -2 -2 -3 -3 -1 -2 -0 -0 -0 -2 -87 -102 -68 -45 -25 -13 -16 -35 -75 -94 -92 -173 -246 -301
-0 -9 -0 -0 -15 -21 -2 -0 -28 -10 -1 -0 -0 -2 -7 -1 -0 -0 -1 -0 -0 -2 -2 -1 -0 -0 -4 -2 -4 -7 -1 -2 -1 -4 -2 -0 -0 -5 -0 -0 -102 -73 -76 -48 -30 -2 -3 -1 -20 -40 -162 -221 -260 -311
-0 -0 -0 -0 -27 -27 -23 -0 -24 -26 -0 -3 -0 -8 -0 -0 -0 -0 -0 -0 -1 -3 -14 -19 -1 -1 -1 -1 -1 -14 -1 -1 -2 -1 -2 -5 -4 -0 -0 -20 -39 -64 -71 -37 -10 -3 -1 -4 -18 -103 -173 -230 -306 -303
-0 -0 -0 -0 -30 -26 -24 -16 -19 -0 -4 -2 -0 -0 -0 -0 -1 -3 -2 -4 -4 -2 -0 -19 -14 -1 -1 -1 -3 -2 -3 -3 -1 -2 -2 -4 -3 -14 -6 -15 -44 -61 -45 -14 -2 -3 -9 -24 -61 -139 -219 -283 -302 -296
-0 -0 -0 -0 -0 -0 -0 -0 -0 -2 -0 -0 -0 -1 -0 -2 -1 -1 -13 -1 -1 -2 -1 -0 -0 -0 -5 -4 -2 -3 -3 -2 -1 -3 -4 -2 -3 -7 -15 -18 -11 -1 -0 -2 -3 -18 -36 -58 -147 -218 -247 -263 -246 -219
-0 -0 -0 -0 -0 -0 -0 -0 -1 -1 -0 -0 -0 -0 -0 -0 -0 -0 -0 -0 -1 -11 -3 -1 -0 -1 -1 -3 -1 -2 -1 -1 -2 -2 -3 -4 -9 -7 -6 -1 -1 -1 -0 -3 -20 -40 -80 -137 -161 -182 -179 -187 -209 -220
-0 -1 -0 -0 -0 -0 -0 -4 -2 -0 -0 -0 -0 -0 -0 -0 -0 -0 -0 -0 -0 -0 -0 -0 -0 -0 -2 -1 -1 -1 -0 -11 -4 -28 -21 -3 -13 -22 -6 -7 -3 -1 -0 -1 -26 -65 -93 -129 -163 -197 -222 -213 -211 -216
-0 -1 -0 -0 -0 -0 -0 -1 -0 -0 -0 -0 -0 -0 -0 -0 -0 -0 -1 -0 -0 -0 -0 -0 -9 -0 -0 -0 -0 -0 -11 -5 -3 -0 -5 -0 -5 -0 -8 -0 -2 -2 -8 -29 -68 -103 -149 -165 -149 -152 -188 -238 -233 -1
-0 -0 -0 -0 -0 -0 -0 -0 -0 -0 -0 -0 -0 -0 -0 -0 -0 -0 -0 -0 -0 -0 -0 -2 -0 -0 -1 -33 -51 -46 -4 -1 -76 -81 -23 -51 -37 -16 -36 -65 -55 -55 -59 -131 -163 -143 -134 -92 -124 -149 -175 -99 -0 -0
-0 -0 -0 -0 -0 -0 -0 -0 -0 -0 -0 -0 -0 -0 -0 -0 -0 -1 -8 -0 -0 -0 -0 -0 -0 -4 -6 -2 -0 -0 -0 -97 -99 -43 -89 -138 -169 -127 -136 -162 -169 -181 -179 -205 -177 -207 -154 -54 -0 -46 -55 -0 -0 -0
-0 -0 -0 -0 -0 -0 -0 -1 -0 -0 -0 -0 -0 -0 -0 -0 -0 -0 -0 -7 -0 -0 -0 -0 -5 -15 -0 -0 -0 -0 -0 -0 -1 -0 -1 -0 -1 -26 -139 -106 -59 -91 -151 -3 -0 -0 -0 -0 -0 -0 -0 -0 -0 -0
-4 -0 -1 -0 -0 -0 -0 -0 -0 -0 -0 -0 -0 -0 -0 -0 -10 -0 -0 -8 -8 -0 -0 -6 -0 -0 -0 -0 -16 -0 -0 -0 -0 -0 -0 -25 -0 -0 -0 -0 -0 -0 -0 -0 -0 -0 -0 -0 -0 -0 -0 -0 -0 -0
-0 -2 -0 -0 -0 -0 -0 -0 -0 -0 -0 -0 -0 -0 -0 -0 -2 -0 -0 -0 -0 -0 -0 -0 -0 -0 -0 -0 -0 -0 -0 -0 -0 -0 -0 -0 -0 -0 -0 -0 -0 -0 -0 -0 -0 -0 -0 -0 -0 -0 -0 -0 -0 -0
-0 -0 -0 -0 -0 -0 -1 -0 -0 -0 -0 -0 -0 -0 -1 -0 -0 -0 -3 -0 -0 -0 -0 -0 -0 -0 -0 -0 -24 -18 -0 -0 -0 -0 -0 -0 -0 -0 -0 -0 -0 -0 -0 -0 -0 -0 -0 -0 -0 -0 -0 -0 -0 -0
-0 -0 -0 -0 -1 -0 -0 -0 -0 -0 -1 -0 -0 -0 -0 -0 -0 -0 -0 -0 -0 -0 -0 -0 -0 -0 -0 -0 -4 -4 -1 -0 -0 -0 -0 -0 -0 -0 -0 -0 -0 -0 -0 -0 -0 -0 -0 -0 -0 -0 -0 -0 -0 -0
-0 -0 -0 -0 -0 -0 -4 -0 -0 -0 -0 -0 -6 -1 -0 -0 -0 -0 -0 -0 -0 -0 -0 -0 -0 -0 -0 -1 -6 -15 -0 -1 -0 -0 -0 -0 -0 -0 -0 -0 -0 -0 -0 -0 -0 -0 -0 -0 -0 -0 -0 -0 -0 -0
-0 -0 -0 -0 -0 -0 -2 -4 -2 -0 -0 -0 -0 -2 -0 -0 -0 -0 -0 -0 -0 -0 -0 -0 -0 -0 -0 -0 -0 -0 -0 -0 -0 -0 -0 -13 -8 -0 -0 -0 -0 -0 -0 -0 -0 -0 -0 -0 -0 -0 -0 -0 -0 -0
-10 -3 -0 -0 -0 -4 -0 -0 -0 -0 -0 -0 -0 -0 -0 -0 -0 -0 -0 -0 -0 -0 -0 -0 -0 -0 -0 -0 -0 -0 -0 -0 -0 -0 -0 -0 -0 -0 -0 -0 -0 -0 -0 -0 -0 -0 -0 -0 -0 -0 -0 -0 -0 -0
-0 -1 -1 -0 -1 -0 -1 -0 -1 -4 -20 -12 -6 -0 -0 -0 -0 -0 -0 -0 -0 -0 -15 -0 -0 -0 -0 -0 -3 -0 -0 -0 -0 -0 -0 -0 -0 -0 -0 -0 -0 -0 -0 -0 -0 -0 -0 -0 -0 -0 -0 -0 -0 -0
-0 -0 -1 -0 -0 -0 -0 -2 -2 -0 -1 -2 -6 -4 -4 -0 -0 -0 -0 -0 -0 -0 -0 -0 -0 -0 -0 -1 -0 -0 -0 -3 -7 -0 -0 -0 -0 -0 -0 -0 -0 -0 -0 -0 -0 -0 -0 -0 -0 -0 -0 -0 -0 -0
-1 -1 -1 -0 -0 -0 -1 -0 -3 -3 -0 -3 -1 -1 -2 -0 -0 -0 -0 -0 -0 -0 -0 -0 -0 -0 -0 -0 -0 -0 -0 -0 -0 -0 -2 -0 -0 -0 -0 -0 -0 -0 -0 -0 -0 -0 -0 -0 -0 -0 -0 -0 -0 -0
-0 -0 -0 -1 -3 -2 -6 -7 -2 -1 -1 -0 -3 -2 -2 -2 -1 -2 -0 -0 -0 -0 -0 -0 -0 -0 -0 -0 -0 -0 -0 -0 -0 -0 -0 -0 -0 -0 -0 -0 -0 -0 -0 -0 -0 -0 -0 -0 -0 -0 -0 -0 -0 -0
-1 -1 -0 -3 -0 -0 -0 -1 -1 -1 -1 -1 -1 -1 -3 -1 -0 -0 -0 -2 -4 -8 -2 -3 -3 -4 -4 -1 -7 -0 -0 -0 -0 -0 -0 -0 -0 -0 -0 -0 -0 -0 -0 -0 -0 -0 -0 -0 -0 -0 -0 -0 -0 -0
Wind_Speed
24 24 24 25 26 27 28 26 25 25 25 25 25 25 24 23 22 21 22 19 23 30 29 25 28 28 25 26 28 22 27 28 25 32 32 29 31 25 29 27 27 30 23 25 24 16 16 2 1 12 13 5 6 5
24 25 25 26 27 29 29 26 26 25 24 25 26 25 24 23 22 22 22 19 22 28 32 28 32 33 30 25 24 22 22 23 22 28 28 26 29 22 31 24 24 30 27 23 20 21 10 6 4 6 6 2 3 2
25 25 26 27 28 29 28 27 26 25 24 24 24 23 23 22 22 21 23 22 25 29 32 34 34 34 32 33 28 27 21 21 22 22 25 24 26 22 25 25 19 28 22 30 26 12 7 6 6 2 3 3 4 3
25 26 26 26 28 27 26 25 25 25 24 23 23 23 23 22 22 22 23 21 22 24 26 22 21 28 27 29 31 33 30 25 25 25 30 30 31 24 28 24 23 20 21 24 16 13 13 8 6 3 1 1 1 2
24 24 24 25 26 26 27 25 25 24 23 22 22 22 22 22 23 24 25 22 21 23 24 27 26 29 27 28 29 31 34 32 30 31 32 36 33 32 33 28 27 16 18 26 20 14 14 9 7 5 3 2 2 2
23 22 23 24 26 26 27 26 25 23 23 21 20 20 20 21 22 21 18 16 19 21 24 24 23 23 23 28 31 31 31 32 33 32 34 34 30 29 35 37 32 22 20 19 24 13 15 11 9 7 4 3 2 1
21 21 21 22 24 26 26 24 23 21 20 17 18 19 20 21 22 22 19 18 20 20 22 24 23 19 23 23 27 29 30 31 31 35 37 37 33 32 38 41 33 36 22 24 23 15 11 8 8 7 6 4 3 2
19 19 19 18 23 22 19 19 18 17 17 16 18 20 22 23 24 19 20 17 18 20 20 23 23 21 18 23 26 25 30 31 32 36 34 37 38 33 40 40 40 35 32 23 25 22 16 11 7 7 7 5 3 1
18 17 16 15 16 20 18 19 18 18 18 19 21 22 23 19 17 15 13 11 14 15 21 22 23 19 16 23 22 21 26 33 30 38 39 35 41 43 38 39 36 38 29 25 30 22 16 11 10 9 7 6 3 2
18 17 15 13 12 11 9 13 15 18 19 20 18 15 16 14 12 10 14 15 18 19 21 24 25 21 19 21 22 19 23 32 34 40 34 45 48 45 40 34 33 34 34 30 27 25 16 13 12 9 9 5 3 2
16 15 12 10 9 9 10 10 13 14 16 16 15 15 14 13 14 16 17 19 18 21 20 24 28 28 19 22 23 21 24 27 36 36 38 43 50 48 42 40 39 36 35 31 27 23 17 14 13 11 8 5 4 2
14 13 11 8 6 9 10 11 12 14 15 15 17 18 15 15 16 18 18 18 20 22 17 20 22 24 22 19 20 21 24 25 31 29 36 46 45 38 39 42 40 35 33 28 24 19 14 13 12 10 7 5 3 2
12 10 9 8 9 12 11 11 12 14 15 19 18 18 15 15 17 18 19 18 19 18 17 18 18 18 22 20 22 21 24 29 25 33 39 39 36 43 34 33 32 29 29 25 19 16 13 12 10 8 7 4 4 2
9 7 6 7 10 11 10 11 14 15 18 18 19 20 21 13 17 15 16 18 14 12 13 16 20 20 19 20 21 24 25 25 36 35 38 37 35 34 25 27 27 25 22 20 16 14 13 11 9 8 6 5 3 1
6 6 6 9 13 13 12 12 13 16 16 17 18 16 18 20 21 21 20 23 23 18 16 17 20 21 22 23 23 23 24 28 30 39 37 31 24 23 22 23 23 21 18 17 15 14 12 12 10 7 5 3 1 0
6 4 14 16 16 16 13 11 13 14 13 13 13 15 17 20 21 23 26 28 26 23 20 20 19 22 24 23 25 29 30 26 30 32 28 29 19 19 18 21 21 19 17 16 15 14 12 11 9 6 4 2 0 1
9 14 16 16 15 16 13 12 12 14 14 14 14 16 17 18 19 21 24 29 28 28 31 26 21 23 21 28 31 30 29 29 26 25 23 26 16 18 18 18 19 18 18 16 14 13 11 8 6 5 4 3 2 2
12 12 13 13 12 12 11 14 14 14 14 14 14 15 17 17 14 18 21 27 30 31 31 29 27 27 25 31 37 36 31 28 28 28 25 21 17 15 16 19 18 17 16 14 13 11 9 7 5 3 3 2 2 2
3 2 5 7 9 10 12 14 14 12 13 12 12 13 13 12 13 17 20 25 27 28 24 25 26 29 32 30 30 32 32 32 27 26 24 19 16 16 16 17 18 18 16 14 12 10 7 4 3 3 2 1 1 1
5 3 6 9 13 12 12 13 15 12 12 12 12 12 12 11 12 14 18 19 20 23 24 24 28 29 29 32 32 30 30 26 23 18 18 17 16 15 16 17 18 17 15 12 9 7 5 3 4 4 2 2 1 2
11 15 15 16 14 13 12 12 12 12 11 11 9 10 12 12 10 12 14 15 18 19 20 20 20 21 25 28 30 31 30 21 21 24 22 17 16 13 15 17 16 17 16 11 8 5 2 2 3 2 2 2 3 3
16 14 13 14 13 14 12 12 11 11 12 11 10 11 13 13 12 12 12 12 14 15 15 14 13 12 15 18 13 11 12 12 12 10 8 8 11 11 11 12 13 9 7 7 5 3 3 2 2 6 4 3 3 4
12 13 13 13 13 13 10 14 11 12 12 11 11 12 13 12 12 12 12 11 12 11 10 13 11 8 3 2 4 8 6 7 10 14 10 8 10 13 13 10 12 8 6 7 2 4 0 2 1 1 2 3 4 5
13 13 13 14 13 12 12 12 13 13 13 12 12 12 13 12 10 11 10 10 9 7 6 8 11 9 6 2 2 3 3 4 5 5 4 7 7 6 7 6 5 4 3 2 4 4 5 3 2 2 2 4 5 6
12 14 15 14 14 15 13 13 12 14 14 14 12 12 13 13 12 11 8 7 7 5 6 7 8 12 10 10 7 3 7 4 5 6 2 2 4 4 3 2 3 2 2 4 5 5 2 2 2 4 4 5 7 6
14 16 16 17 14 15 12 10 11 13 14 13 13 13 12 13 12 12 8 8 7 7 8 9 12 13 7 7 5 6 10 13 13 13 9 7 6 6 4 2 2 3 7 3 2 1 3 2 4 5 5 5 5 6
15 15 16 15 14 12 12 13 13 13 12 12 12 11 12 13 14 11 11 7 8 7 5 4 5 7 6 5 5 4 10 10 18 23 31 30 24 18 14 6 3 13 19 16 13 8 8 7 7 7 7 6 6 6
14 15 15 15 13 12 11 10 10 11 12 13 13 11 10 9 10 12 11 10 8 7 2 6 9 10 8 3 6 5 3 6 5 17 23 24 25 26 3 5 4 6 6 7 10 9 8 7 6 5 5 5 6 7
15 15 14 11 12 12 10 9 8 9 10 12 11 11 10 11 11 10 9 9 6 1 2 3 5 5 15 11 1 15 9 5 17 15 15 15 14 13 14 15 16 13 11 9 8 6 6 6 6 6 6 6 7 8
16 14 14 13 10 9 9 10 7 6 9 7 13 10 6 7 6 6 12 11 11 9 12 12 12 6 6 25 26 18 15 16 8 9 11 10 9 9 12 13 12 11 10 10 9 8 8 8 8 8 8 7 8 8
15 15 14 12 10 12 14 11 15 14 12 6 7 5 5 16 16 18 19 18 13 17 19 17 7 8 4 8 4 5 7 9 9 10 10 12 12 12 12 11 9 9 8 8 9 8 8 7 6 6 6 7 8 8
15 15 15 11 7 14 17 17 14 11 11 13 14 17 19 11 12 12 24 24 5 22 21 22 23 17 12 8 9 9 11 10 11 11 11 12 12 12 12 12 11 10 8 7 7 7 7 7 7 6 5 6 6 7
13 13 15 13 13 17 17 15 14 16 12 10 10 10 10 9 8 12 22 22 21 19 18 17 15 12 11 14 10 10 10 11 12 13 13 14 15 15 15 12 12 11 9 9 8 9 8 7 8 8 8 8 7 7
Wind_Direction
348 345 341 338 337 335 331 330 330 324 316 309 301 296 290 291 290 281 269 274 258 245 250 251 247 244 246 242 238 247 239 237 238 232 233 235 236 240 238 237 229 235 235 246 248 261 259 198 304 284 303 25 111 116
348 343 340 336 333 329 328 327 324 320 313 305 292 291 288 286 286 282 265 279 270 255 250 258 251 249 248 251 251 249 245 241 245 235 239 244 240 247 235 243 236 234 238 244 252 256 262 198 306 296 340 46 91 98
349 345 340 335 330 327 326 325 321 316 308 300 292 290 290 286 284 281 272 275 266 258 259 251 248 247 247 246 252 245 251 253 249 252 248 244 240 255 236 242 243 239 247 245 251 259 229 218 296 309 2 86 91 84
351 347 342 337 333 329 328 326 322 315 307 296 292 290 286 283 282 279 268 277 268 263 253 253 261 253 252 249 246 245 252 254 256 254 246 243 241 252 247 261 254 254 242 243 258 265 251 246 249 262 321 88 106 81
356 353 350 344 338 332 326 323 319 315 310 299 294 291 288 282 278 271 264 268 268 259 256 256 269 256 252 247 245 246 247 250 252 249 246 244 249 255 249 257 250 262 252 244 256 254 264 234 238 253 241 227 167 121
4 2 358 352 342 332 323 317 314 309 300 297 295 291 290 284 277 267 264 276 271 265 260 254 259 260 253 245 245 246 246 247 248 248 248 249 252 253 247 245 247 262 263 262 264 260 254 254 242 248 222 193 181 246
14 13 11 5 352 337 325 321 310 309 305 300 294 290 283 281 273 265 265 272 272 264 259 257 261 259 250 251 247 245 246 247 248 247 248 248 251 251 249 246 248 248 264 259 266 279 265 250 219 199 188 168 128 69
26 26 27 31 10 4 3 343 325 316 314 305 294 282 277 273 264 265 260 269 270 261 262 255 256 261 253 249 248 244 244 244 247 247 250 247 247 252 249 247 246 251 262 259 261 261 266 258 221 195 174 168 173 118
38 42 48 53 52 33 30 336 306 298 294 287 280 270 267 269 267 276 286 279 275 272 258 257 252 251 258 249 248 247 247 245 250 246 245 250 245 244 247 247 248 249 261 261 256 258 260 233 209 196 187 181 183 159
50 54 61 70 82 97 138 240 250 244 260 270 266 272 269 277 286 284 269 266 268 266 265 257 257 256 261 249 250 249 255 250 246 245 253 243 245 246 247 252 251 254 257 260 255 253 243 223 209 210 204 205 202 158
57 60 70 83 101 120 147 193 235 244 243 248 260 270 274 269 264 271 267 262 265 264 264 261 252 250 263 252 252 253 253 251 248 248 241 244 244 245 248 250 253 258 257 256 256 250 234 225 215 207 210 213 193 171
59 64 70 83 128 140 151 168 181 188 217 240 237 240 252 262 269 271 267 269 265 260 266 259 257 248 254 261 258 259 254 259 252 250 245 245 246 250 249 248 250 254 253 253 250 243 224 215 207 200 196 188 171 132
68 72 80 91 106 120 141 159 170 183 201 186 209 228 264 276 271 267 260 264 263 267 273 267 259 257 250 255 256 261 257 252 263 249 245 247 250 245 248 244 244 248 247 244 236 228 206 197 193 196 186 176 148 129
79 87 98 111 116 120 140 158 160 167 172 168 179 170 182 266 273 278 271 268 287 291 280 271 260 255 252 246 254 255 257 261 247 246 244 245 248 247 238 240 238 240 233 224 207 191 188 192 189 180 177 156 159 167
86 84 90 112 105 106 111 123 137 150 154 153 163 141 167 183 189 235 255 255 256 270 281 273 263 257 250 250 247 254 256 251 250 242 242 247 247 240 236 231 226 224 214 194 188 184 181 176 178 177 178 166 165 331
71 79 75 66 60 57 82 109 121 128 144 148 152 178 193 208 198 207 208 223 238 251 257 261 259 252 248 248 243 239 246 251 248 249 246 247 250 244 230 221 218 209 200 194 186 175 173 176 174 173 179 192 131 56
65 67 63 54 48 37 59 98 127 159 165 157 167 184 188 201 201 200 204 219 221 213 200 219 241 244 255 245 237 237 242 249 266 259 261 245 245 239 221 211 205 196 192 183 180 181 179 180 175 165 153 124 79 28
65 67 67 66 68 84 108 136 131 156 174 179 193 202 194 192 171 191 184 191 184 192 191 192 213 235 248 241 230 232 245 260 260 258 258 254 247 233 211 205 207 191 187 182 183 180 179 168 164 162 151 113 71 53
175 160 77 76 80 107 109 123 140 167 173 175 188 201 188 185 169 180 176 174 166 174 174 176 196 206 215 222 228 232 242 249 256 258 248 245 240 222 212 207 198 196 190 188 188 195 188 195 177 179 179 153 16 13
223 164 109 92 88 103 134 151 134 153 184 188 182 185 179 178 184 164 154 158 171 178 187 204 213 226 229 227 237 244 248 244 246 249 236 231 223 213 208 202 193 187 185 173 169 173 171 158 264 292 270 287 40 10
74 69 66 76 82 120 149 156 164 161 181 181 182 190 190 192 201 185 181 208 179 197 216 208 210 214 220 220 228 223 219 235 230 218 213 209 209 198 196 197 195 192 179 169 178 186 198 259 356 259 243 291 341 3
45 64 77 80 100 115 144 144 186 185 148 156 182 195 195 195 183 200 204 207 217 216 202 219 218 220 202 198 211 214 218 215 211 207 201 183 180 180 179 187 192 194 175 169 186 212 284 52 229 251 282 336 13 4
71 82 79 86 95 100 168 109 210 229 176 190 205 194 186 194 204 234 214 232 200 177 219 226 221 229 238 190 182 191 185 178 191 196 198 179 186 194 199 195 203 198 198 237 241 269 142 209 205 336 357 10 15 47
86 84 81 78 91 98 228 217 224 235 219 218 212 205 172 195 208 188 207 229 222 232 220 202 204 200 201 143 136 139 116 113 135 153 166 131 125 161 201 218 243 256 232 164 116 160 131 125 92 72 15 35 48 76
88 81 76 78 83 64 229 232 234 249 252 258 216 219 190 200 181 191 198 210 243 244 242 223 198 195 182 177 174 137 71 99 107 105 177 152 136 136 146 158 168 204 159 127 126 116 112 114 64 68 60 65 82 76
77 67 66 59 79 80 203 189 209 250 258 245 215 216 211 191 198 191 212 237 222 227 247 229 199 194 180 181 143 76 68 73 74 77 75 74 86 84 96 113 141 268 251 278 283 275 73 26 64 75 70 30 15 51
55 87 70 94 99 146 191 186 202 225 251 231 229 240 224 206 186 210 210 228 208 227 249 318 360 75 145 149 176 170 73 72 76 81 113 112 96 92 92 81 50 94 115 114 114 98 92 84 82 75 61 60 55 23
70 103 94 99 121 177 177 199 230 237 243 228 236 271 274 278 248 243 231 270 261 228 313 18 36 62 74 119 167 156 155 59 58 67 77 86 98 110 78 19 8 267 45 59 84 84 82 72 62 43 37 30 30 27
132 106 131 179 228 195 251 232 251 240 202 190 210 211 230 247 261 253 266 270 279 287 60 90 175 45 60 191 113 78 82 93 68 62 59 58 57 46 53 73 83 69 58 42 332 359 34 37 58 49 51 34 20 12
224 280 211 304 243 247 236 245 302 300 210 210 179 197 238 240 285 317 194 197 204 220 196 194 200 38 144 94 101 178 180 147 355 11 35 32 16 19 46 69 72 63 57 58 53 35 16 34 22 26 23 25 18 14
255 238 232 316 289 203 176 203 184 184 188 263 220 307 315 167 168 166 162 165 195 197 179 182 242 232 300 29 341 336 349 276 281 310 360 28 30 27 23 23 37 47 53 55 46 45 45 37 35 32 29 16 11 12
247 231 210 3 322 202 180 172 192 211 214 198 187 162 159 4 10 38 123 148 228 164 137 96 103 83 228 284 322 341 289 346 5 7 354 1 12 15 22 21 26 38 40 40 25 19 19 7 8 16 42 33 31 24
248 239 220 223 221 198 200 202 194 180 201 224 228 231 243 260 286 215 156 159 147 113 106 96 76 63 39 90 35 7 343 344 341 340 341 339 339 344 348 6 5 7 6 4 4 4 12 39 27 23 14 5 8 4